EDT,Max TemperatureF,Mean TemperatureF,Min TemperatureF,Max Dew PointF,MeanDew PointF,Min DewpointF,Max Humidity, Mean Humidity, Min Humidity, Max Sea Level PressureIn, Mean Sea Level PressureIn, Min Sea Level PressureIn, Max VisibilityMiles, Mean VisibilityMiles, Min VisibilityMiles, Max Wind SpeedMPH, Mean Wind SpeedMPH, Max Gust SpeedMPH,PrecipitationIn, CloudCover, Events, WindDirDegrees
2012-10-1,71,60,48,53,47,44,90,64,39,29.99,29.93,29.88,10,10,10,14,5,21,0.00,2,Rain,267
2012-10-2,69,65,62,66,63,56,100,91,70,30.00,29.98,29.95,10,5,0,9,4,,0.14,8,Fog-Rain,57
2012-10-3,81,72,64,72,68,64,100,90,65,30.14,30.06,29.99,10,5,0,8,3,,0.00,5,Fog-Rain,317
2012-10-4,75,70,63,71,67,61,97,88,79,30.15,30.11,30.06,10,6,2,8,1,,0.01,3,Rain,260
2012-10-5,80,70,61,61,57,54,96,69,45,30.11,30.05,29.96,10,10,5,12,5,,0.00,0,,281
2012-10-6,77,66,52,61,54,42,93,71,52,30.03,29.91,29.81,10,9,5,17,5,28,0.00,2,,268
2012-10-7,52,47,43,46,43,40,93,80,68,30.15,30.10,30.04,10,9,4,6,3,,0.19,5,Rain,310
2012-10-8,54,48,42,45,42,39,100,83,59,30.31,30.22,30.15,10,6,0,8,3,,0.00,3,Fog-Rain,337
2012-10-9,57,52,48,55,51,43,100,89,77,30.22,30.16,30.08,10,5,1,10,8,,0.12,8,Rain,31
2012-10-10,66,60,53,57,52,39,100,81,45,30.08,29.96,29.86,10,7,2,16,7,26,0.02,7,Rain,303
2012-10-11,61,52,45,38,34,31,71,53,35,30.26,30.19,30.06,10,10,10,16,8,23,0.00,0,,280
2012-10-12,59,50,41,43,34,24,93,60,34,30.46,30.23,30.12,10,10,9,20,5,28,0.00,2,Rain,335
2012-10-13,55,44,34,39,28,21,81,53,29,30.56,30.46,30.34,10,10,10,8,3,,0.00,0,,127
2012-10-14,73,59,46,56,47,39,86,64,37,30.31,30.15,29.96,10,10,10,17,6,28,0.00,2,,210
2012-10-15,68,64,59,63,59,53,96,84,70,29.95,29.75,29.68,10,9,1,14,8,23,0.20,6,Rain,232
2012-10-16,61,52,43,49,40,37,86,63,42,29.95,29.84,29.73,10,10,10,17,8,26,0.00,1,,308
2012-10-17,62,50,39,43,39,36,89,68,43,30.04,29.99,29.94,10,10,10,6,1,,0.00,0,,173
2012-10-18,70,56,42,59,49,40,96,79,49,30.04,29.99,29.90,10,9,6,16,4,22,0.00,4,,103
2012-10-19,73,68,64,68,63,57,100,90,76,29.89,29.76,29.66,10,8,1,15,7,22,0.82,6,Rain,157
2012-10-20,66,57,50,57,49,40,100,81,45,29.89,29.74,29.68,10,5,0,14,3,17,0.00,1,Fog,278
2012-10-21,64,55,46,43,40,38,77,59,38,30.09,30.01,29.91,10,10,10,15,8,23,0.00,0,,286
2012-10-22,69,56,45,44,41,39,83,59,39,30.17,30.11,30.07,10,10,7,16,6,22,0.00,0,,283
2012-10-23,68,58,48,53,49,44,87,74,55,30.16,30.11,30.07,10,10,10,5,2,,0.00,4,Rain,89
2012-10-24,69,61,53,57,55,51,94,84,65,30.20,30.13,30.09,10,7,3,13,5,,0.00,4,,71
2012-10-25,62,60,57,57,56,55,94,88,82,30.27,30.24,30.20,10,8,2,8,6,,0.00,8,,88
2012-10-26,66,62,59,58,57,55,90,81,73,30.24,30.17,30.11,10,10,6,8,5,,0.00,8,,65
2012-10-27,64,60,57,57,53,49,88,74,65,30.10,29.99,29.90,10,10,10,13,7,,0.00,6,,65
2012-10-28,57,55,53,53,49,44,94,77,62,29.89,29.76,29.63,10,9,4,20,12,26,0.11,7,Rain,41
2012-10-29,62,56,51,59,52,46,100,89,69,29.60,28.91,28.23,10,4,1,47,26,62,1.82,8,Rain,22
2012-10-30,50,46,42,48,39,37,88,79,71,29.50,29.40,28.69,10,10,7,30,12,46,0.00,8,Rain,190
2012-10-31,48,45,42,40,37,35,89,75,61,29.63,29.56,29.49,10,10,10,13,5,20,0.00,7,Rain,246